DW9572 Weather Reports


Display with metric or nautical units.
time (UTC)temp
F
wind
direction
speed
MPH
gust
MPH
rain 1hr
in
rain 24hr
in
rain mn
in
humidity
%
barometer
mb
20260906110043 63 360 9.0 16.0 0.00 0.00 0.00 53 1014.2
20260906104523 62 23 7.0 12.0 0.00 0.00 0.00 55 1014.3
20260906103019 59 51 4.0 6.0 0.00 0.00 0.00 62 1014.3
20260906101557 59 79 6.0 8.0 0.00 0.00 0.00 61 1014.3
20260906100054 60 52 6.0 9.0 0.00 0.00 0.00 59 1014.4
20260906094602 60 12 11.0 16.0 0.00 0.00 0.00 58 1014.4
20260906093039 61 18 12.0 17.0 0.00 0.00 0.00 59 1014.5
20260906091518 61 13 13.0 17.0 0.00 0.00 0.00 59 1014.6
20260906090018 61 359 10.0 14.0 0.00 0.00 0.00 60 1014.6
20260906084600 60 343 11.0 13.0 0.00 0.00 0.00 62 1014.8
20260906083100 60 3 9.0 13.0 0.00 0.00 0.00 63 1014.9
20260906081551 60 357 14.0 17.0 0.00 0.00 0.00 64 1014.9
20260906080049 60 16 10.0 15.0 0.00 0.00 0.00 65 1015.1
20260906074522 60 34 11.0 15.0 0.00 0.00 0.00 63 1015.1
20260906073022 61 337 9.0 12.0 0.00 0.00 0.00 59 1015.3
20260906071504 61 18 10.0 17.0 0.00 0.00 0.00 61 1015.3
20260906070003 60 357 11.0 15.0 0.00 0.00 0.00 62 1015.0
20260906064545 60 1 12.0 16.0 0.00 0.00 0.00 64 1015.2
20260906063045 60 36 8.0 14.0 0.00 0.00 0.00 61 1015.1
20260906061535 63 22 7.0 10.0 0.00 0.00 0.00 54 1014.9
20260906060028 65 16 7.0 11.0 0.00 0.00 0.00 53 1014.9
20260906054509 65 8 7.0 12.0 0.00 0.00 0.00 52 1014.8
20260906053011 65 356 8.0 11.0 0.00 0.00 0.00 53 1014.9
20260906051549 64 318 1.0 6.0 0.00 0.00 0.00 56 1015.2
20260906050100 63 304 2.0 4.0 0.00 0.00 0.00 57 1015.4
20260906044534 63 293 2.0 4.0 0.00 0.00 0.00 55 1015.3
20260906043030 64 331 0.0 3.0 0.00 0.00 0.00 55 1015.3
20260906041514 64 260 0.0 3.0 0.00 0.00 0.00 55 1015.2
20260906040012 65 340 6.0 10.0 0.00 0.00 0.00 51 1014.9
20260906034603 65 330 6.0 9.0 0.00 0.00 0.00 51 1014.9
20260906033057 65 316 4.0 6.0 0.00 0.00 0.00 51 1014.8
20260906031547 66 333 1.0 5.0 0.00 0.00 0.00 52 1014.6
20260906030037 67 316 7.0 9.0 0.00 0.00 0.00 52 1014.4
20260906024521 68 320 9.0 13.0 0.00 0.00 0.00 52 1014.4
20260906023020 69 313 8.0 10.0 0.00 0.00 0.00 51 1014.4
20260906021502 69 264 5.0 5.0 0.00 0.00 0.00 51 1014.5
20260906020106 70 259 4.0 6.0 0.00 0.00 0.00 47 1014.5
20260906020002 70 257 4.0 6.0 0.00 0.00 0.00 47 1014.4
20260906014552 72 260 6.0 10.0 0.00 0.00 0.00 45 1014.4
20260906013042 73 256 9.0 11.0 0.00 0.00 0.00 44 1014.4
20260906011524 73 218 10.0 12.0 0.00 0.00 0.00 44 1014.4
20260906010024 73 221 10.0 12.0 0.00 0.00 0.00 45 1014.4
20260906004505 74 235 10.0 14.0 0.00 0.00 0.00 45 1014.3
20260906003003 74 203 10.0 14.0 0.00 0.00 0.00 44 1014.4
20260906001544 74 267 9.0 15.0 0.00 0.00 0.00 43 1014.5
20260906000044 73 239 11.0 17.0 0.00 0.00 0.00 46 1014.5
20260905234525 73 259 13.0 19.0 0.00 0.00 0.00 47 1014.5
20260905233031 73 260 14.0 19.0 0.00 0.00 0.00 45 1014.6
20260905231507 73 244 15.0 18.0 0.00 0.00 0.00 46 1014.6
20260905230006 72 215 13.0 18.0 0.00 0.00 0.00 47 1014.6
20260905224610 71 207 9.0 14.0 0.00 0.00 0.00 51 1014.6
20260905223051 72 260 13.0 17.0 0.00 0.00 0.00 49 1014.8
20260905221550 75 222 8.0 12.0 0.00 0.00 0.00 38 1015.1
20260905220046 74 205 3.0 9.0 0.00 0.00 0.00 39 1015.1
20260905214544 73 146 4.0 7.0 0.00 0.00 0.00 40 1015.4
20260905213041 73 156 5.0 10.0 0.00 0.00 0.00 40 1015.5
20260905211545 72 128 0.0 5.0 0.00 0.00 0.00 41 1015.6
20260905210050 71 11 4.0 7.0 0.00 0.00 0.00 43 1015.7
20260905204534 71 336 0.0 6.0 0.00 0.00 0.00 45 1015.8
20260905203015 70 72 8.0 11.0 0.00 0.00 0.00 46 1016.0
20260905201514 70 345 7.0 11.0 0.00 0.00 0.00 46 1016.1
20260905200120 70 1 9.0 12.0 0.00 0.00 0.00 47 1016.1
20260905194552 69 9 6.0 12.0 0.00 0.00 0.00 48 1016.2
20260905193033 69 20 7.0 10.0 0.00 0.00 0.00 48 1016.2
20260905191539 68 3 9.0 13.0 0.00 0.00 0.00 49 1016.3
20260905190014 68 338 5.0 12.0 0.00 0.00 0.00 49 1016.4
20260905184512 68 5 5.0 12.0 0.00 0.00 0.00 49 1016.6
20260905183054 67 343 4.0 10.0 0.00 0.00 0.00 50 1016.8
20260905181551 67 59 7.0 14.0 0.00 0.00 0.00 49 1016.8
20260905180036 67 75 8.0 11.0 0.00 0.00 0.00 50 1017.0
20260905174533 67 340 5.0 9.0 0.00 0.00 0.00 52 1017.1
20260905173011 65 352 6.0 9.0 0.00 0.00 0.00 53 1017.2
20260905171529 65 25 4.0 11.0 0.00 0.00 0.00 53 1017.1
20260905170057 65 332 4.0 9.0 0.00 0.00 0.00 54 1017.1
20260905164550 64 46 8.0 12.0 0.00 0.00 0.00 54 1016.9
20260905163030 64 63 10.0 12.0 0.00 0.00 0.00 54 1016.9
20260905161536 64 33 8.0 11.0 0.00 0.00 0.00 56 1016.9
20260905160015 62 6 7.0 9.0 0.00 0.00 0.00 61 1016.9
20260905154502 60 343 1.0 6.0 0.00 0.00 0.00 71 1016.9
20260905153046 58 312 4.0 6.0 0.00 0.00 0.00 76 1017.0
20260905151546 58 277 4.0 7.0 0.00 0.00 0.00 79 1017.3
20260905150044 58 269 3.0 7.0 0.00 0.00 0.00 78 1017.3
20260905144550 58 118 1.0 3.0 0.00 0.00 0.00 76 1017.3
20260905143040 57 104 1.0 4.0 0.00 0.00 0.00 76 1017.0
20260905141537 57 291 2.0 5.0 0.00 0.00 0.00 77 1016.8
20260905140039 56 263 4.0 7.0 0.00 0.00 0.00 78 1016.7
20260905134533 57 279 7.0 10.0 0.00 0.00 0.00 76 1016.6
20260905133011 58 266 4.0 7.0 0.00 0.00 0.00 73 1016.5
20260905131510 57 347 0.0 2.0 0.00 0.00 0.00 69 1016.2
20260905130053 57 155 0.0 3.0 0.00 0.00 0.00 67 1016.0
20260905124550 59 276 0.0 6.0 0.00 0.00 0.00 66 1015.7
20260905123031 59 359 10.0 13.0 0.00 0.00 0.00 63 1015.4
20260905121530 59 15 4.0 6.0 0.00 0.00 0.00 59 1015.6
20260905120012 59 16 1.0 5.0 0.00 0.00 0.00 59 1015.7
20260905114512 58 349 5.0 6.0 0.00 0.00 0.00 62 1015.8
20260905113053 57 263 4.0 5.0 0.00 0.00 0.00 66 1015.8
20260905111606 56 276 4.0 6.0 0.00 0.00 0.00 67 1015.7